Weather Roundup
Issued by NWS Springfield, MO

Home | Current Version | Previous Version | Text Only | Print | Product List | Glossary On
Versions: 1 2 3 4 5 6 7 8 9 10 11 12 13 14 15 16 17 18 19 20 21 22 23 24 25 26 27 28 29 30 31 32 33 34 35 36 37 38 39 40 41 42 43 44 45 46 47 48 49 50
000
NZUS99 KSGF 252107
HRRSGF

HOURLY WEATHER
NATIONAL WEATHER SERVICE SPRINGFIELD MO
400 PM CDT WED MAY 25 2016

......SGF CWA......

CITY           SKY/WX    TMP DP  RH WIND       PRES   REMARKS
SPRINGFIELD    SUNNY     82  62  50 S15       29.95F
JOPLIN         PTSUNNY   83  69  62 S16       29.92F
WEST PLAINS    SUNNY     75  63  66 S8        30.01S
ROLLA          SUNNY     77  63  61 S3        29.95F
BRANSON        MOSUNNY   79  66  65 SE9       29.99F

......SURROUNDING SGF CWA......

CITY           SKY/WX    TMP DP  RH WIND       PRES   REMARKS
CHANUTE        CLOUDY    80  69  69 S14       29.88F
PARSONS        PTSUNNY   82  71  69 S16G23    29.89F
COFFEYVILLE    PTSUNNY   82  72  71 S17G24    29.87F
EMPORIA        CLOUDY    79  69  71 SE16      29.86F
GROVE OK       MOSUNNY   84  72  65 S16G23    29.93S
ROGERS AR      MOSUNNY   82  69  64 S18       29.97F
SILOAM SPRINGS PTSUNNY   81  64  57 S16       29.97S
HARRISON AR    MOSUNNY   78  66  66 S13       30.00F
NEAR YELLVILLE CLOUDY   N/A N/A N/A SE5       29.97S

......KANSAS AND MISSOURI......

CITY           SKY/WX    TMP DP  RH WIND       PRES   REMARKS
KANSAS CTY INT CLOUDY    81  65  58 S18       29.87F
DOWNTOWN KC    MOSUNNY   84  65  52 S17G25    29.86F
COLUMBIA       MOSUNNY   83  61  47 W5        29.92F
SEDALIA        SUNNY     83  61  47 S15G22    29.92F
ST JOSEPH      PTSUNNY   81  65  58 S15       29.86F
ST LOUIS       CLOUDY    84  64  50 S15       29.95F
SPIRIT OF STL  CLOUDY    83  66  56 S9        29.94F
KIRKSVILLE     MOSUNNY   81  64  56 SW13      29.91S
WICHITA        MOSUNNY   88  72  58 S15       29.80F HX  94
TOPEKA         PTSUNNY   82  66  58 S16G26    29.85F
OLATHE         SUNNY     80  64  58 S10G22    29.88F

......TENNESSEE......

CITY           SKY/WX    TMP DP  RH WIND       PRES   REMARKS
MEMPHIS        TSTM      70  66  87 VRB6      30.10S FOG
NASHVILLE      CLOUDY    83  62  49 S6        30.09F

......ARKANSAS.......

CITY           SKY/WX    TMP DP  RH WIND       PRES   REMARKS
FAYETTEVILLE   SUNNY     78  70  76 S20G26    29.97F
FT SMITH       MOSUNNY   83  71  67 SE8       29.94F
LITTLE ROCK    PTSUNNY   83  73  72 E9        30.00F

......OKLAHOMA.......

CITY           SKY/WX    TMP DP  RH WIND       PRES   REMARKS
TULSA          PTSUNNY   87  74  64 S25G31    29.85F HX  95
PONCA CITY     MOSUNNY   88  71  57 S10G23    29.82F HX  94
MCALESTER      MOSUNNY   86  74  67 S14G22    29.94F HX  94
OKLAHOMA CITY  PTSUNNY   88  72  58 S21       29.87F HX  94

......IOWA............

CITY           SKY/WX    TMP DP  RH WIND       PRES   REMARKS
DES MOINES     CLOUDY    78  62  57 S8        29.86S
QUAD CITIES    CLOUDY    85  60  42 SW13      29.86F

......ILLINOIS........

CITY           SKY/WX    TMP DP  RH WIND       PRES   REMARKS
QUINCY         CLOUDY    83  63  50 S14       29.88F
CHICAGO        PTSUNNY   85  61  44 SE12G18   29.88F




USA.gov is the U.S. government's official web portal to all federal, state and local government web resources and services.